Year,Month,Day,Hour,Minute,Value (Times are PST for temperature in C)
2018,08,09,00,00,21.90
2018,08,09,00,01,21.90
2018,08,09,00,02,21.80
2018,08,09,00,03,21.80
2018,08,09,00,04,21.80
2018,08,09,00,05,21.80
2018,08,09,00,06,21.80
2018,08,09,00,07,21.80
2018,08,09,00,08,21.70
2018,08,09,00,09,21.70
2018,08,09,00,10,21.70
2018,08,09,00,11,21.70
2018,08,09,00,12,21.70
2018,08,09,00,13,21.60
2018,08,09,00,14,21.60
2018,08,09,00,15,21.60
2018,08,09,00,16,21.50
2018,08,09,00,17,21.50
2018,08,09,00,18,21.50
2018,08,09,00,19,21.40
2018,08,09,00,20,21.40
2018,08,09,00,21,21.40
2018,08,09,00,22,21.30
2018,08,09,00,23,21.30
2018,08,09,00,24,21.30
2018,08,09,00,25,21.30
2018,08,09,00,26,21.20
2018,08,09,00,27,21.20
2018,08,09,00,28,21.20
2018,08,09,00,29,21.20
2018,08,09,00,30,21.20
2018,08,09,00,31,21.20
2018,08,09,00,32,21.10
2018,08,09,00,33,21.10
2018,08,09,00,34,21.10
2018,08,09,00,35,21.10
2018,08,09,00,36,21.00
2018,08,09,00,37,21.00
2018,08,09,00,38,21.00
2018,08,09,00,39,21.00
2018,08,09,00,40,21.00
2018,08,09,00,41,21.00
2018,08,09,00,42,20.90
2018,08,09,00,43,20.90
2018,08,09,00,44,20.90
2018,08,09,00,45,20.90
2018,08,09,00,46,20.90
2018,08,09,00,47,20.90
2018,08,09,00,48,20.90
2018,08,09,00,49,20.90
2018,08,09,00,50,20.90
2018,08,09,00,51,20.80
2018,08,09,00,52,20.80
2018,08,09,00,53,20.80
2018,08,09,00,54,20.80
2018,08,09,00,55,20.80
2018,08,09,00,56,20.70
2018,08,09,00,57,20.70
2018,08,09,00,58,20.70
2018,08,09,00,59,20.70
2018,08,09,01,00,20.60
2018,08,09,01,01,20.60
2018,08,09,01,02,20.60
2018,08,09,01,03,20.60
2018,08,09,01,04,20.50
2018,08,09,01,05,20.50
2018,08,09,01,06,20.50
2018,08,09,01,07,20.40
2018,08,09,01,08,20.40
2018,08,09,01,09,20.40
2018,08,09,01,10,20.40
2018,08,09,01,11,20.40
2018,08,09,01,12,20.30
2018,08,09,01,13,20.30
2018,08,09,01,14,20.30
2018,08,09,01,15,20.30
2018,08,09,01,16,20.30
2018,08,09,01,17,20.30
2018,08,09,01,18,20.30
2018,08,09,01,19,20.30
2018,08,09,01,20,20.30
2018,08,09,01,21,20.20
2018,08,09,01,22,20.20
2018,08,09,01,23,20.20
2018,08,09,01,24,20.20
2018,08,09,01,25,20.20
2018,08,09,01,26,20.20
2018,08,09,01,27,20.20
2018,08,09,01,28,20.10
2018,08,09,01,29,20.10
2018,08,09,01,30,20.10
2018,08,09,01,31,20.10
2018,08,09,01,32,20.10
2018,08,09,01,33,20.10
2018,08,09,01,34,20.00
2018,08,09,01,35,20.00
2018,08,09,01,36,20.00
2018,08,09,01,37,20.00
2018,08,09,01,38,19.90
2018,08,09,01,39,19.90
2018,08,09,01,40,19.90
2018,08,09,01,41,19.90
2018,08,09,01,42,19.90
2018,08,09,01,43,19.90
2018,08,09,01,44,19.90
2018,08,09,01,45,19.90
2018,08,09,01,46,19.80
2018,08,09,01,47,19.80
2018,08,09,01,48,19.80
2018,08,09,01,49,19.80
2018,08,09,01,50,19.80
2018,08,09,01,51,19.70
2018,08,09,01,52,19.70
2018,08,09,01,53,19.70
2018,08,09,01,54,19.70
2018,08,09,01,55,19.70
2018,08,09,01,56,19.70
2018,08,09,01,57,19.60
2018,08,09,01,58,19.60
2018,08,09,01,59,19.60
2018,08,09,02,00,19.60
2018,08,09,02,01,19.60
2018,08,09,02,02,19.50
2018,08,09,02,03,19.50
2018,08,09,02,04,19.50
2018,08,09,02,05,19.40
2018,08,09,02,06,19.40
2018,08,09,02,07,19.40
2018,08,09,02,08,19.40
2018,08,09,02,09,19.30
2018,08,09,02,10,19.30
2018,08,09,02,11,19.30
2018,08,09,02,12,19.30
2018,08,09,02,13,19.30
2018,08,09,02,14,19.30
2018,08,09,02,15,19.20
2018,08,09,02,16,19.20
2018,08,09,02,17,19.20
2018,08,09,02,18,19.20
2018,08,09,02,19,19.10
2018,08,09,02,20,19.10
2018,08,09,02,21,19.10
2018,08,09,02,22,19.10
2018,08,09,02,23,19.00
2018,08,09,02,24,19.00
2018,08,09,02,25,19.00
2018,08,09,02,26,18.90
2018,08,09,02,27,18.90
2018,08,09,02,28,18.90
2018,08,09,02,29,18.90
2018,08,09,02,30,18.90
2018,08,09,02,31,18.80
2018,08,09,02,32,18.80
2018,08,09,02,33,18.80
2018,08,09,02,34,18.80
2018,08,09,02,35,18.80
2018,08,09,02,36,18.80
2018,08,09,02,37,18.80
2018,08,09,02,38,18.70
2018,08,09,02,39,18.70
2018,08,09,02,40,18.70
2018,08,09,02,41,18.70
2018,08,09,02,42,18.70
2018,08,09,02,43,18.70
2018,08,09,02,44,18.60
2018,08,09,02,45,18.60
2018,08,09,02,46,18.60
2018,08,09,02,47,18.60
2018,08,09,02,48,18.60
2018,08,09,02,49,18.60
2018,08,09,02,50,18.50
2018,08,09,02,51,18.50
2018,08,09,02,52,18.50
2018,08,09,02,53,18.50
2018,08,09,02,54,18.50
2018,08,09,02,55,18.40
2018,08,09,02,56,18.40
2018,08,09,02,57,18.40
2018,08,09,02,58,18.40
2018,08,09,02,59,18.40
2018,08,09,03,00,18.40
2018,08,09,03,01,18.40
2018,08,09,03,02,18.30
2018,08,09,03,03,18.30
2018,08,09,03,04,18.30
2018,08,09,03,05,18.30
2018,08,09,03,06,18.30
2018,08,09,03,07,18.30
2018,08,09,03,08,18.20
2018,08,09,03,09,18.20
2018,08,09,03,10,18.20
2018,08,09,03,11,18.20
2018,08,09,03,12,18.20
2018,08,09,03,13,18.20
2018,08,09,03,14,18.20
2018,08,09,03,15,18.10
2018,08,09,03,16,18.10
2018,08,09,03,17,18.10
2018,08,09,03,18,18.10
2018,08,09,03,19,18.10
2018,08,09,03,20,18.10
2018,08,09,03,21,18.10
2018,08,09,03,22,18.10
2018,08,09,03,23,18.00
2018,08,09,03,24,18.00
2018,08,09,03,25,18.00
2018,08,09,03,26,18.00
2018,08,09,03,27,18.00
2018,08,09,03,28,18.00
2018,08,09,03,29,18.00
2018,08,09,03,30,17.90
2018,08,09,03,31,17.90
2018,08,09,03,32,17.90
2018,08,09,03,33,17.90
2018,08,09,03,34,17.90
2018,08,09,03,35,17.80
2018,08,09,03,36,17.80
2018,08,09,03,37,17.80
2018,08,09,03,38,17.80
2018,08,09,03,39,17.80
2018,08,09,03,40,17.80
2018,08,09,03,41,17.70
2018,08,09,03,42,17.70
2018,08,09,03,43,17.70
2018,08,09,03,44,17.70
2018,08,09,03,45,17.70
2018,08,09,03,46,17.70
2018,08,09,03,47,17.70
2018,08,09,03,48,17.70
2018,08,09,03,49,17.70
2018,08,09,03,50,17.70
2018,08,09,03,51,17.70
2018,08,09,03,52,17.70
2018,08,09,03,53,17.60
2018,08,09,03,54,17.60
2018,08,09,03,55,17.60
2018,08,09,03,56,17.60
2018,08,09,03,57,17.60
2018,08,09,03,58,17.60
2018,08,09,03,59,17.60
2018,08,09,04,00,17.60
2018,08,09,04,01,17.60
2018,08,09,04,02,17.50
2018,08,09,04,03,17.50
2018,08,09,04,04,17.50
2018,08,09,04,05,17.50
2018,08,09,04,06,17.50
2018,08,09,04,07,17.40
2018,08,09,04,08,17.40
2018,08,09,04,09,17.40
2018,08,09,04,10,17.40
2018,08,09,04,11,17.40
2018,08,09,04,12,17.40
2018,08,09,04,13,17.40
2018,08,09,04,14,17.40
2018,08,09,04,15,17.40
2018,08,09,04,16,17.40
2018,08,09,04,17,17.40
2018,08,09,04,18,17.40
2018,08,09,04,19,17.40
2018,08,09,04,20,17.40
2018,08,09,04,21,17.40
2018,08,09,04,22,17.40
2018,08,09,04,23,17.40
2018,08,09,04,24,17.40
2018,08,09,04,25,17.40
2018,08,09,04,26,17.40
2018,08,09,04,27,17.40
2018,08,09,04,28,17.40
2018,08,09,04,29,17.40
2018,08,09,04,30,17.40
2018,08,09,04,31,17.40
2018,08,09,04,32,17.40
2018,08,09,04,33,17.40
2018,08,09,04,34,17.40
2018,08,09,04,35,17.30
2018,08,09,04,36,17.30
2018,08,09,04,37,17.30
2018,08,09,04,38,17.30
2018,08,09,04,39,17.30
2018,08,09,04,40,17.30
2018,08,09,04,41,17.20
2018,08,09,04,42,17.20
2018,08,09,04,43,17.20
2018,08,09,04,44,17.20
2018,08,09,04,45,17.20
2018,08,09,04,46,17.20
2018,08,09,04,47,17.20
2018,08,09,04,48,17.20
2018,08,09,04,49,17.20
2018,08,09,04,50,17.20
2018,08,09,04,51,17.20
2018,08,09,04,52,17.20
2018,08,09,04,53,17.20
2018,08,09,04,54,17.20
2018,08,09,04,55,17.10
2018,08,09,04,56,17.10
2018,08,09,04,57,17.10
2018,08,09,04,58,17.10
2018,08,09,04,59,17.00
2018,08,09,05,00,17.00
2018,08,09,05,01,17.00
2018,08,09,05,02,16.90
2018,08,09,05,03,16.90
2018,08,09,05,04,16.90
2018,08,09,05,05,16.90
2018,08,09,05,06,16.80
2018,08,09,05,07,16.80
2018,08,09,05,08,16.80
2018,08,09,05,09,16.80
2018,08,09,05,10,16.80
2018,08,09,05,11,16.80
2018,08,09,05,12,16.80
2018,08,09,05,13,16.80
2018,08,09,05,14,16.80
2018,08,09,05,15,16.80
2018,08,09,05,16,16.80
2018,08,09,05,17,16.80
2018,08,09,05,18,16.80
2018,08,09,05,19,16.80
2018,08,09,05,20,16.80
2018,08,09,05,21,16.80
2018,08,09,05,22,16.80
2018,08,09,05,23,16.80
2018,08,09,05,24,16.80
2018,08,09,05,25,16.80
2018,08,09,05,26,16.80
2018,08,09,05,27,16.70
2018,08,09,05,28,16.70
2018,08,09,05,29,16.70
2018,08,09,05,30,16.70
2018,08,09,05,31,16.70
2018,08,09,05,32,16.70
2018,08,09,05,33,16.70
2018,08,09,05,34,16.70
2018,08,09,05,35,16.60
2018,08,09,05,36,16.60
2018,08,09,05,37,16.60
2018,08,09,05,38,16.60
2018,08,09,05,39,16.60
2018,08,09,05,40,16.60
2018,08,09,05,41,16.60
2018,08,09,05,42,16.60
2018,08,09,05,43,16.50
2018,08,09,05,44,16.50
2018,08,09,05,45,16.50
2018,08,09,05,46,16.50
2018,08,09,05,47,16.50
2018,08,09,05,48,16.40
2018,08,09,05,49,16.40
2018,08,09,05,50,16.40
2018,08,09,05,51,16.40
2018,08,09,05,52,16.40
2018,08,09,05,53,16.30
2018,08,09,05,54,16.30
2018,08,09,05,55,16.30
2018,08,09,05,56,16.30
2018,08,09,05,57,16.20
2018,08,09,05,58,16.20
2018,08,09,05,59,16.20
2018,08,09,06,00,16.20
2018,08,09,06,01,16.20
2018,08,09,06,02,16.20
2018,08,09,06,03,16.10
2018,08,09,06,04,16.10
2018,08,09,06,05,16.10
2018,08,09,06,06,16.10
2018,08,09,06,07,16.10
2018,08,09,06,08,16.00
2018,08,09,06,09,16.00
2018,08,09,06,10,16.00
2018,08,09,06,11,16.00
2018,08,09,06,12,16.00
2018,08,09,06,13,15.90
2018,08,09,06,14,15.90
2018,08,09,06,15,15.90
2018,08,09,06,16,15.90
2018,08,09,06,17,15.90
2018,08,09,06,18,15.90
2018,08,09,06,19,15.80
2018,08,09,06,20,15.80
2018,08,09,06,21,15.80
2018,08,09,06,22,15.80
2018,08,09,06,23,15.80
2018,08,09,06,24,15.80
2018,08,09,06,25,15.80
2018,08,09,06,26,15.70
2018,08,09,06,27,15.70
2018,08,09,06,28,15.70
2018,08,09,06,29,15.70
2018,08,09,06,30,15.70
2018,08,09,06,31,15.70
2018,08,09,06,32,15.70
2018,08,09,06,33,15.60
2018,08,09,06,34,15.60
2018,08,09,06,35,15.60
2018,08,09,06,36,15.60
2018,08,09,06,37,15.60
2018,08,09,06,38,15.60
2018,08,09,06,39,15.60
2018,08,09,06,40,15.50
2018,08,09,06,41,15.50
2018,08,09,06,42,15.60
2018,08,09,06,43,15.60
2018,08,09,06,44,15.60
2018,08,09,06,45,15.60
2018,08,09,06,46,15.60
2018,08,09,06,47,15.60
2018,08,09,06,48,15.70
2018,08,09,06,49,15.70
2018,08,09,06,50,15.70
2018,08,09,06,51,15.70
2018,08,09,06,52,15.70
2018,08,09,06,53,15.70
2018,08,09,06,54,15.70
2018,08,09,06,55,15.70
2018,08,09,06,56,15.70
2018,08,09,06,57,15.70
2018,08,09,06,58,15.80
2018,08,09,06,59,15.80
2018,08,09,07,00,15.80
2018,08,09,07,01,15.80
2018,08,09,07,02,15.80
2018,08,09,07,03,15.80
2018,08,09,07,04,15.80
2018,08,09,07,05,15.80
2018,08,09,07,06,15.90
2018,08,09,07,07,15.90
2018,08,09,07,08,15.90
2018,08,09,07,09,15.90
2018,08,09,07,10,15.90
2018,08,09,07,11,16.00
2018,08,09,07,12,16.00
2018,08,09,07,13,16.10
2018,08,09,07,14,16.10
2018,08,09,07,15,16.10
2018,08,09,07,16,16.20
2018,08,09,07,17,16.20
2018,08,09,07,18,16.20
2018,08,09,07,19,16.30
2018,08,09,07,20,16.30
2018,08,09,07,21,16.30
2018,08,09,07,22,16.30
2018,08,09,07,23,16.30
2018,08,09,07,24,16.40
2018,08,09,07,25,16.40
2018,08,09,07,26,16.40
2018,08,09,07,27,16.50
2018,08,09,07,28,16.60
2018,08,09,07,29,16.60
2018,08,09,07,30,16.70
2018,08,09,07,31,16.80
2018,08,09,07,32,16.90
2018,08,09,07,33,17.00
2018,08,09,07,34,17.10
2018,08,09,07,35,17.20
2018,08,09,07,36,17.30
2018,08,09,07,37,17.50
2018,08,09,07,38,17.60
2018,08,09,07,39,17.70
2018,08,09,07,40,17.80
2018,08,09,07,41,17.90
2018,08,09,07,42,18.00
2018,08,09,07,43,18.20
2018,08,09,07,44,18.30
2018,08,09,07,45,18.50
2018,08,09,07,46,18.70
2018,08,09,07,47,18.80
2018,08,09,07,48,18.90
2018,08,09,07,49,19.10
2018,08,09,07,50,19.20
2018,08,09,07,51,19.40
2018,08,09,07,52,19.50
2018,08,09,07,53,19.70
2018,08,09,07,54,19.80
2018,08,09,07,55,19.90
2018,08,09,07,56,19.90
2018,08,09,07,57,20.00
2018,08,09,07,58,20.00
2018,08,09,07,59,20.10
2018,08,09,08,00,20.20
2018,08,09,08,01,20.20
2018,08,09,08,02,20.30
2018,08,09,08,03,20.40
2018,08,09,08,04,20.50
2018,08,09,08,05,20.60
2018,08,09,08,06,20.70
2018,08,09,08,07,20.80
2018,08,09,08,08,20.90
2018,08,09,08,09,21.00
2018,08,09,08,10,21.10
2018,08,09,08,11,21.20
2018,08,09,08,12,21.30
2018,08,09,08,13,21.40
2018,08,09,08,14,21.50
2018,08,09,08,15,21.60
2018,08,09,08,16,21.70
2018,08,09,08,17,21.80
2018,08,09,08,18,21.90
2018,08,09,08,19,22.00
2018,08,09,08,20,22.00
2018,08,09,08,21,22.10
2018,08,09,08,22,22.20
2018,08,09,08,23,22.30
2018,08,09,08,24,22.40
2018,08,09,08,25,22.40
2018,08,09,08,26,22.50
2018,08,09,08,27,22.60
2018,08,09,08,28,22.60
2018,08,09,08,29,22.70
2018,08,09,08,30,22.90
2018,08,09,08,31,23.00
2018,08,09,08,32,23.10
2018,08,09,08,33,23.10
2018,08,09,08,34,23.20
2018,08,09,08,35,23.30
2018,08,09,08,36,23.30
2018,08,09,08,37,23.30
2018,08,09,08,38,23.40
2018,08,09,08,39,23.40
2018,08,09,08,40,23.50
2018,08,09,08,41,23.50
2018,08,09,08,42,23.60
2018,08,09,08,43,23.60
2018,08,09,08,44,23.70
2018,08,09,08,45,23.70
2018,08,09,08,46,23.70
2018,08,09,08,47,23.70
2018,08,09,08,48,23.80
2018,08,09,08,49,23.80
2018,08,09,08,50,23.80
2018,08,09,08,51,23.80
2018,08,09,08,52,23.80
2018,08,09,08,53,23.90
2018,08,09,08,54,23.90
2018,08,09,08,55,23.90
2018,08,09,08,56,23.90
2018,08,09,08,57,24.00
2018,08,09,08,58,24.00
2018,08,09,08,59,24.10
2018,08,09,09,00,24.10
2018,08,09,09,01,24.20
2018,08,09,09,02,24.20
2018,08,09,09,03,24.30
2018,08,09,09,04,24.40
2018,08,09,09,05,24.50
2018,08,09,09,06,24.60
2018,08,09,09,07,24.70
2018,08,09,09,08,24.70
2018,08,09,09,09,24.80
2018,08,09,09,10,24.90
2018,08,09,09,11,24.90
2018,08,09,09,12,25.00
2018,08,09,09,13,25.10
2018,08,09,09,14,25.10
2018,08,09,09,15,25.20
2018,08,09,09,16,25.30
2018,08,09,09,17,25.30
2018,08,09,09,18,25.40
2018,08,09,09,19,25.50
2018,08,09,09,20,25.50
2018,08,09,09,21,25.60
2018,08,09,09,22,25.70
2018,08,09,09,23,25.90
2018,08,09,09,24,25.90
2018,08,09,09,25,26.00
2018,08,09,09,26,26.10
2018,08,09,09,27,26.30
2018,08,09,09,28,26.40
2018,08,09,09,29,26.50
2018,08,09,09,30,26.60
2018,08,09,09,31,26.70
2018,08,09,09,32,26.80
2018,08,09,09,33,26.90
2018,08,09,09,34,27.00
2018,08,09,09,35,27.10
2018,08,09,09,36,27.20
2018,08,09,09,37,27.20
2018,08,09,09,38,27.30
2018,08,09,09,39,27.30
2018,08,09,09,40,27.30
2018,08,09,09,41,27.30
2018,08,09,09,42,27.30
2018,08,09,09,43,27.30
2018,08,09,09,44,27.40
2018,08,09,09,45,27.50
2018,08,09,09,46,27.60
2018,08,09,09,47,27.60
2018,08,09,09,48,27.70
2018,08,09,09,49,27.80
2018,08,09,09,50,27.80
2018,08,09,09,51,27.80
2018,08,09,09,52,27.70
2018,08,09,09,53,27.70
2018,08,09,09,54,27.50
2018,08,09,09,55,27.40
2018,08,09,09,56,27.40
2018,08,09,09,57,27.30
2018,08,09,09,58,27.30
2018,08,09,09,59,27.20
2018,08,09,10,00,27.10
2018,08,09,10,01,27.00
2018,08,09,10,02,26.90
2018,08,09,10,03,26.90
2018,08,09,10,04,26.90
2018,08,09,10,05,27.00
2018,08,09,10,06,27.00
2018,08,09,10,07,27.00
2018,08,09,10,08,27.10
2018,08,09,10,09,27.10
2018,08,09,10,10,27.10
2018,08,09,10,11,27.10
2018,08,09,10,12,27.00
2018,08,09,10,13,26.90
2018,08,09,10,14,26.80
2018,08,09,10,15,26.70
2018,08,09,10,16,26.70
2018,08,09,10,17,26.80
2018,08,09,10,18,26.90
2018,08,09,10,19,27.00
2018,08,09,10,20,27.00
2018,08,09,10,21,27.10
2018,08,09,10,22,27.10
2018,08,09,10,23,27.00
2018,08,09,10,24,27.00
2018,08,09,10,25,26.90
2018,08,09,10,26,26.90
2018,08,09,10,27,26.90
2018,08,09,10,28,26.90
2018,08,09,10,29,26.80
2018,08,09,10,30,26.60
2018,08,09,10,31,26.40
2018,08,09,10,32,26.30
2018,08,09,10,33,26.30
2018,08,09,10,34,26.40
2018,08,09,10,35,26.50
2018,08,09,10,36,26.60
2018,08,09,10,37,26.70
2018,08,09,10,38,26.60
2018,08,09,10,39,26.70
2018,08,09,10,40,26.70
2018,08,09,10,41,26.70
2018,08,09,10,42,26.70
2018,08,09,10,43,26.60
2018,08,09,10,44,26.50
2018,08,09,10,45,26.40
2018,08,09,10,46,26.30
2018,08,09,10,47,26.20
2018,08,09,10,48,26.10
2018,08,09,10,49,26.00
2018,08,09,10,50,26.00
2018,08,09,10,51,26.00
2018,08,09,10,52,26.00
2018,08,09,10,53,26.10
2018,08,09,10,54,26.10
2018,08,09,10,55,26.20
2018,08,09,10,56,26.30
2018,08,09,10,57,26.40
2018,08,09,10,58,26.50
2018,08,09,10,59,26.50
2018,08,09,11,00,26.60
2018,08,09,11,01,26.70
2018,08,09,11,02,26.80
2018,08,09,11,03,27.00
2018,08,09,11,04,27.10
2018,08,09,11,05,27.20
2018,08,09,11,06,27.30
2018,08,09,11,07,27.40
2018,08,09,11,08,27.50
2018,08,09,11,09,27.70
2018,08,09,11,10,27.70
2018,08,09,11,11,27.70
2018,08,09,11,12,27.50
2018,08,09,11,13,27.50
2018,08,09,11,14,27.40
2018,08,09,11,15,27.20
2018,08,09,11,16,27.10
2018,08,09,11,17,27.10
2018,08,09,11,18,27.10
2018,08,09,11,19,27.20
2018,08,09,11,20,27.20
2018,08,09,11,21,27.30
2018,08,09,11,22,27.40
2018,08,09,11,23,27.40
2018,08,09,11,24,27.40
2018,08,09,11,25,27.40
2018,08,09,11,26,27.50
2018,08,09,11,27,27.50
2018,08,09,11,28,27.30
2018,08,09,11,29,27.10
2018,08,09,11,30,27.00
2018,08,09,11,31,26.90
2018,08,09,11,32,26.80
2018,08,09,11,33,26.80
2018,08,09,11,34,26.70
2018,08,09,11,35,26.70
2018,08,09,11,36,26.70
2018,08,09,11,37,26.50
2018,08,09,11,38,26.20
2018,08,09,11,39,26.10
2018,08,09,11,40,26.00
2018,08,09,11,41,26.10
2018,08,09,11,42,26.20
2018,08,09,11,43,26.30
2018,08,09,11,44,26.30
2018,08,09,11,45,26.30
2018,08,09,11,46,26.40
2018,08,09,11,47,26.40
2018,08,09,11,48,26.40
2018,08,09,11,49,26.30
2018,08,09,11,50,26.20
2018,08,09,11,51,26.10
2018,08,09,11,52,26.00
2018,08,09,11,53,26.00
2018,08,09,11,54,26.00
2018,08,09,11,55,26.10
2018,08,09,11,56,26.20
2018,08,09,11,57,26.30
2018,08,09,11,58,26.50
2018,08,09,11,59,26.70
2018,08,09,12,00,26.90
2018,08,09,12,01,27.10
2018,08,09,12,02,27.20
2018,08,09,12,03,27.20
2018,08,09,12,04,27.30
2018,08,09,12,05,27.30
2018,08,09,12,06,27.30
2018,08,09,12,07,27.20
2018,08,09,12,08,27.10
2018,08,09,12,09,27.00
2018,08,09,12,10,27.00
2018,08,09,12,11,26.90
2018,08,09,12,12,27.00
2018,08,09,12,13,27.10
2018,08,09,12,14,27.20
2018,08,09,12,15,27.20
2018,08,09,12,16,27.20
2018,08,09,12,17,27.30
2018,08,09,12,18,27.30
2018,08,09,12,19,27.40
2018,08,09,12,20,27.40
2018,08,09,12,21,27.50
2018,08,09,12,22,27.60
2018,08,09,12,23,27.80
2018,08,09,12,24,27.90
2018,08,09,12,25,28.00
2018,08,09,12,26,28.10
2018,08,09,12,27,28.20
2018,08,09,12,28,28.30
2018,08,09,12,29,28.30
2018,08,09,12,30,28.30
2018,08,09,12,31,28.30
2018,08,09,12,32,28.20
2018,08,09,12,33,28.20
2018,08,09,12,34,28.20
2018,08,09,12,35,28.20
2018,08,09,12,36,28.20
2018,08,09,12,37,28.20
2018,08,09,12,38,28.20
2018,08,09,12,39,28.30
2018,08,09,12,40,28.50
2018,08,09,12,41,28.50
2018,08,09,12,42,28.60
2018,08,09,12,43,28.50
2018,08,09,12,44,28.50
2018,08,09,12,45,28.60
2018,08,09,12,46,28.60
2018,08,09,12,47,28.70
2018,08,09,12,48,28.80
2018,08,09,12,49,28.80
2018,08,09,12,50,28.90
2018,08,09,12,51,29.00
2018,08,09,12,52,29.10
2018,08,09,12,53,29.20
2018,08,09,12,54,29.30
2018,08,09,12,55,29.40
2018,08,09,12,56,29.50
2018,08,09,12,57,29.40
2018,08,09,12,58,29.30
2018,08,09,12,59,29.20
2018,08,09,13,00,29.20
2018,08,09,13,01,29.10
2018,08,09,13,02,29.00
2018,08,09,13,03,29.00
2018,08,09,13,04,29.10
2018,08,09,13,05,29.20
2018,08,09,13,06,29.30
2018,08,09,13,07,29.40
2018,08,09,13,08,29.40
2018,08,09,13,09,29.40
2018,08,09,13,10,29.40
2018,08,09,13,11,29.50
2018,08,09,13,12,29.60
2018,08,09,13,13,29.60
2018,08,09,13,14,29.70
2018,08,09,13,15,29.70
2018,08,09,13,16,29.80
2018,08,09,13,17,29.90
2018,08,09,13,18,30.00
2018,08,09,13,19,30.10
2018,08,09,13,20,30.10
2018,08,09,13,21,30.00
2018,08,09,13,22,29.80
2018,08,09,13,23,29.60
2018,08,09,13,24,29.60
2018,08,09,13,25,29.60
2018,08,09,13,26,29.60
2018,08,09,13,27,29.70
2018,08,09,13,28,29.70
2018,08,09,13,29,29.80
2018,08,09,13,30,29.90
2018,08,09,13,31,30.00
2018,08,09,13,32,30.00
2018,08,09,13,33,30.10
2018,08,09,13,34,30.10
2018,08,09,13,35,30.20
2018,08,09,13,36,30.20
2018,08,09,13,37,30.10
2018,08,09,13,38,29.90
2018,08,09,13,39,29.70
2018,08,09,13,40,29.60
2018,08,09,13,41,29.60
2018,08,09,13,42,29.50
2018,08,09,13,43,29.50
2018,08,09,13,44,29.50
2018,08,09,13,45,29.60
2018,08,09,13,46,29.60
2018,08,09,13,47,29.60
2018,08,09,13,48,29.70
2018,08,09,13,49,29.80
2018,08,09,13,50,29.80
2018,08,09,13,51,29.70
2018,08,09,13,52,29.70
2018,08,09,13,53,29.50
2018,08,09,13,54,29.30
2018,08,09,13,55,29.20
2018,08,09,13,56,29.10
2018,08,09,13,57,29.10
2018,08,09,13,58,29.20
2018,08,09,13,59,29.30
2018,08,09,14,00,29.50
2018,08,09,14,01,29.70
2018,08,09,14,02,29.80
2018,08,09,14,03,29.90
2018,08,09,14,04,29.80
2018,08,09,14,05,29.70
2018,08,09,14,06,29.70
2018,08,09,14,07,29.70
2018,08,09,14,08,29.70
2018,08,09,14,09,29.70
2018,08,09,14,10,29.80
2018,08,09,14,11,29.80
2018,08,09,14,12,29.90
2018,08,09,14,13,30.00
2018,08,09,14,14,30.10
2018,08,09,14,15,30.10
2018,08,09,14,16,30.10
2018,08,09,14,17,30.10
2018,08,09,14,18,30.10
2018,08,09,14,19,30.10
2018,08,09,14,20,30.20
2018,08,09,14,21,30.20
2018,08,09,14,22,30.30
2018,08,09,14,23,30.30
2018,08,09,14,24,30.30
2018,08,09,14,25,30.40
2018,08,09,14,26,30.50
2018,08,09,14,27,30.60
2018,08,09,14,28,30.80
2018,08,09,14,29,30.80
2018,08,09,14,30,30.90
2018,08,09,14,31,31.00
2018,08,09,14,32,31.10
2018,08,09,14,33,31.20
2018,08,09,14,34,31.30
2018,08,09,14,35,31.40
2018,08,09,14,36,31.50
2018,08,09,14,37,31.70
2018,08,09,14,38,31.80
2018,08,09,14,39,31.90
2018,08,09,14,40,32.00
2018,08,09,14,41,32.10
2018,08,09,14,42,32.10
2018,08,09,14,43,32.10
2018,08,09,14,44,32.10
2018,08,09,14,45,32.10
2018,08,09,14,46,32.10
2018,08,09,14,47,32.10
2018,08,09,14,48,32.10
2018,08,09,14,49,32.10
2018,08,09,14,50,32.10
2018,08,09,14,51,32.20
2018,08,09,14,52,32.20
2018,08,09,14,53,32.20
2018,08,09,14,54,32.20
2018,08,09,14,55,32.10
2018,08,09,14,56,32.20
2018,08,09,14,57,32.30
2018,08,09,14,58,32.30
2018,08,09,14,59,32.40
2018,08,09,15,00,32.40
2018,08,09,15,01,32.40
2018,08,09,15,02,32.40
2018,08,09,15,03,32.50
2018,08,09,15,04,32.50
2018,08,09,15,05,32.60
2018,08,09,15,06,32.70
2018,08,09,15,07,32.70
2018,08,09,15,08,32.70
2018,08,09,15,09,32.70
2018,08,09,15,10,32.60
2018,08,09,15,11,32.50
2018,08,09,15,12,32.30
2018,08,09,15,13,32.30
2018,08,09,15,14,32.20
2018,08,09,15,15,32.30
2018,08,09,15,16,32.30
2018,08,09,15,17,32.30
2018,08,09,15,18,32.30
2018,08,09,15,19,32.30
2018,08,09,15,20,32.30
2018,08,09,15,21,32.40
2018,08,09,15,22,32.50
2018,08,09,15,23,32.50
2018,08,09,15,24,32.60
2018,08,09,15,25,32.60
2018,08,09,15,26,32.70
2018,08,09,15,27,32.70
2018,08,09,15,28,32.80
2018,08,09,15,29,32.90
2018,08,09,15,30,32.90
2018,08,09,15,31,33.00
2018,08,09,15,32,33.10
2018,08,09,15,33,33.10
2018,08,09,15,34,33.10
2018,08,09,15,35,33.10
2018,08,09,15,36,33.20
2018,08,09,15,37,33.20
2018,08,09,15,38,33.30
2018,08,09,15,39,33.30
2018,08,09,15,40,33.30
2018,08,09,15,41,33.30
2018,08,09,15,42,33.30
2018,08,09,15,43,33.20
2018,08,09,15,44,33.30
2018,08,09,15,45,33.30
2018,08,09,15,46,33.40
2018,08,09,15,47,33.30
2018,08,09,15,48,33.30
2018,08,09,15,49,33.30
2018,08,09,15,50,33.30
2018,08,09,15,51,33.30
2018,08,09,15,52,33.30
2018,08,09,15,53,33.30
2018,08,09,15,54,33.40
2018,08,09,15,55,33.40
2018,08,09,15,56,33.40
2018,08,09,15,57,33.50
2018,08,09,15,58,33.50
2018,08,09,15,59,33.50
2018,08,09,16,00,33.50
2018,08,09,16,01,33.50
2018,08,09,16,02,33.30
2018,08,09,16,03,33.20
2018,08,09,16,04,33.10
2018,08,09,16,05,33.00
2018,08,09,16,06,32.90
2018,08,09,16,07,32.90
2018,08,09,16,08,32.90
2018,08,09,16,09,32.90
2018,08,09,16,10,32.90
2018,08,09,16,11,33.00
2018,08,09,16,12,33.10
2018,08,09,16,13,33.20
2018,08,09,16,14,33.30
2018,08,09,16,15,33.20
2018,08,09,16,16,33.10
2018,08,09,16,17,33.00
2018,08,09,16,18,33.00
2018,08,09,16,19,33.10
2018,08,09,16,20,33.20
2018,08,09,16,21,33.20
2018,08,09,16,22,33.30
2018,08,09,16,23,33.40
2018,08,09,16,24,33.50
2018,08,09,16,25,33.50
2018,08,09,16,26,33.50
2018,08,09,16,27,33.60
2018,08,09,16,28,33.60
2018,08,09,16,29,33.50
2018,08,09,16,30,33.40
2018,08,09,16,31,33.30
2018,08,09,16,32,33.30
2018,08,09,16,33,33.20
2018,08,09,16,34,33.20
2018,08,09,16,35,33.20
2018,08,09,16,36,33.30
2018,08,09,16,37,33.30
2018,08,09,16,38,33.20
2018,08,09,16,39,33.10
2018,08,09,16,40,33.10
2018,08,09,16,41,33.20
2018,08,09,16,42,33.20
2018,08,09,16,43,33.20
2018,08,09,16,44,33.10
2018,08,09,16,45,33.10
2018,08,09,16,46,33.10
2018,08,09,16,47,33.10
2018,08,09,16,48,33.10
2018,08,09,16,49,33.10
2018,08,09,16,50,33.10
2018,08,09,16,51,33.10
2018,08,09,16,52,33.20
2018,08,09,16,53,33.30
2018,08,09,16,54,33.20
2018,08,09,16,55,33.10
2018,08,09,16,56,33.00
2018,08,09,16,57,32.90
2018,08,09,16,58,32.90
2018,08,09,16,59,32.90
2018,08,09,17,00,32.90
2018,08,09,17,01,32.80
2018,08,09,17,02,32.90
2018,08,09,17,03,33.00
2018,08,09,17,04,33.00
2018,08,09,17,05,33.00
2018,08,09,17,06,33.10
2018,08,09,17,07,33.20
2018,08,09,17,08,33.20
2018,08,09,17,09,33.30
2018,08,09,17,10,33.30
2018,08,09,17,11,33.40
2018,08,09,17,12,33.40
2018,08,09,17,13,33.40
2018,08,09,17,14,33.30
2018,08,09,17,15,33.20
2018,08,09,17,16,33.20
2018,08,09,17,17,33.20
2018,08,09,17,18,33.20
2018,08,09,17,19,33.20